COSMOS 1506

导读 | 豆包AI

COSMOS 1506是苏联(CIS,独联体继承)在冷战时期发射的“宇宙”系列卫星,于1983年10月26日北京时间08:00成功入轨。作为苏联规模庞大的卫星项目,“宇宙”系列承担多种航天任务,涵盖军事侦察、技术试验与空间科学观测等方向,是苏联太空探索与战略情报能力的重要载体,折射出冷战时期美苏太空竞赛的发展脉络。

Basic Information
目录编号:
14450
目录名称:
COSMOS 1506
国际标识:
1983-108A
轨道中心:
EARTH
卫星名称:
COSMOS 1506
卫星全名:
--
卫星状态:
在轨 (已飞行15470 天)
发射日期:
1983-10-26 UTC
国别 :
俄罗斯(独联体) (CIS)
星等 :
--
Orbit Information
数据来源 国际轨道数据
星历时间: 2026-03-04T16:20:55+0800
9小时前
查看轨道信息
半长轴: 7354.355km
偏心率: 0.0041608
轨道倾角: 82.935°
近地点辐角 295.483°
升交点赤经 349.580°
平近点角 184.568°
近地点: 945.617km
远地点: 1006.819km
周期: 104.611分钟
每日圈数: 13.765308
Detailed Information
使用方式:
暂无
2D Orbit Map
3D Orbit Map
Orbit Altitude Analysis Chart
Orbit Inclination Analysis Chart
Orbit Comprehensive Analysis Chart
View Comprehensive Chart